[[{"header":{"parameterUnit":"m.s-1","parameterCategory":1,"la1":30.2991,"la2":30.254,"lo1":-89.0895,"lo2":-89.0444,"dy":0.0017,"dx":0.0017,"nx":28,"ny":28,"refTime":"2024-03-03T03:00:00:Z","depth":0,"parameterNumber":2,"parameterNumberName":"U-component_of_WINDS"},"data":[0,0,0,0,0,0,0,0,0,0,0,0,0,0,0,0,0,0,0,0,0,0,0,0,0,0,0,0,0,0,0,0,0,0,0,0,0,0,0,0,0,0,0,0,0,0,0,0,0,0,0,0,0,0,0,0,0,0,-4.0734,-4.0735,0,-4.0809,-4.081,-4.081,-4.0778,-4.0776,-4.0775,-4.0773,-4.0848,-4.0852,-4.0856,0,0,0,0,0,0,0,0,0,0,0,0,0,-4.0564,-4.0567,-4.0734,-4.0735,-4.0736,-4.0809,-4.081,-4.0811,-4.0779,-4.0776,-4.0774,-4.0772,-4.0847,-4.0851,-4.0856,0,0,0,0,0,0,0,0,0,0,0,0,0,-4.0638,-4.0568,-4.0734,-4.0729,-4.0729,-4.0808,-4.081,-4.0811,-4.0779,-4.0776,-4.0774,-4.0771,-4.0846,-4.0851,-4.0857,-4.0945,0,0,-4.0873,-4.0876,0,0,0,0,0,0,0,0,-4.0634,-4.0644,-4.0729,-4.0729,-4.073,-4.0781,-4.0777,-4.0856,-4.078,-4.076,-4.0773,-4.077,-4.0828,-4.0835,-4.0855,-4.0949,-4.0952,-4.0874,-4.0877,-4.088,-4.0881,0,0,0,0,0,0,0,-4.0629,-4.0641,-4.0764,-4.073,-4.0731,-4.0723,-4.073,-4.0792,-4.0808,-4.0761,-4.0759,-4.0769,-4.0828,-4.085,-4.0856,-4.0953,-4.0874,-4.0879,-4.0882,-4.0884,-4.1124,-4.1127,0,0,0,0,0,0,-4.0624,-4.0637,-4.0761,-4.0766,-4.0674,-4.0728,-4.0736,-4.0768,-4.0808,-4.0811,-4.0771,-4.0767,-4.0842,-4.085,-4.0859,-4.0965,-4.088,-4.0885,-4.0888,-4.1121,-4.1125,-4.1128,0,0,0,0,0,0,-4.062,-4.0635,-4.0758,-4.0701,-4.0716,-4.0734,-4.0769,-4.077,-4.0792,-4.0815,-4.0817,-4.079,-4.084,-4.0851,-4.0924,-4.0967,-4.0887,-4.0892,-4.1118,-4.1123,-4.1127,-4.1179,0,0,0,0,0,0,-4.0615,-4.0634,-4.0668,-4.0702,-4.0719,-4.0822,-4.0772,-4.0774,-4.0802,-4.0797,-4.0833,-4.0837,-4.0838,-4.0916,-4.093,-4.0974,-4.0897,-4.1114,-4.112,-4.1125,-4.1173,-4.1184,-4.1194,0,0,0,0,0,-4.0609,-4.0679,-4.0669,-4.0685,-4.0761,-4.0825,-4.0834,-4.0835,-4.0805,-4.0839,-4.0854,-4.0836,-4.0961,-4.0924,-4.0939,-4.0985,-4.1111,-4.1118,-4.1125,-4.1168,-4.1182,-4.1194,0,0,0,0,0,0,-4.0648,-4.0683,-4.0673,-4.0755,-4.0788,-4.0819,-4.0861,-4.085,-4.089,-4.0884,-4.0884,-4.0892,-4.0968,-4.0984,-4.0942,-4.1074,-4.1032,-4.1042,-4.1059,-4.1073,-4.1083,-4.1076,-4.0901,0,0,0,0,0,-4.0666,-4.0715,-4.0743,-4.0813,-4.083,-4.0843,-4.0871,-4.0869,-4.0902,-4.0915,-4.0935,-4.0967,-4.1014,-4.1045,-4.1089,-4.1176,-4.1184,-4.1216,-4.1226,-4.1235,-4.1243,-4.129,-4.1305,-4.1151,-4.1151,-4.1151,0,0,-4.0704,-4.0729,-4.0759,-4.0821,-4.0846,-4.0896,-4.0854,-4.0909,-4.0946,-4.0923,-4.0993,-4.1009,-4.1046,-4.1126,-4.1163,-4.1142,-4.1288,-4.1244,-4.125,-4.1254,-4.1299,-4.1314,-4.1326,-4.1156,-4.1155,-4.1154,0,0,-4.0797,-4.0822,-4.0883,-4.0909,-4.0947,-4.0956,-4.0971,-4.1006,-4.1016,-4.1086,-4.107,-4.1115,-4.1196,-4.1222,-4.1246,-4.1354,-4.1338,-4.1369,-4.1422,-4.1469,-4.1481,-4.1492,-4.1529,-4.1543,-4.1377,-4.1377,-4.1377,0,-4.0839,-4.0914,-4.0916,-4.0972,-4.1,-4.0983,-4.1045,-4.107,-4.1121,-4.114,-4.1117,-4.1219,-4.1242,-4.1329,-4.1355,-4.1376,-4.1393,-4.1363,-4.1479,-4.149,-4.15,-4.1536,-4.155,-4.1381,-4.138,-4.138,-4.138,0,-4.0963,-4.1016,-4.1061,-4.1111,-4.1144,-4.1203,-4.1214,-4.1247,-4.1244,-4.1256,-4.1328,-4.1356,-4.1406,-4.1427,-4.1424,-4.1514,-4.15,-4.1479,-4.1436,-4.1518,-4.1551,-4.1565,-4.1385,-4.1384,-4.1383,-4.1382,0,0,-4.1079,-4.1132,-4.1148,-4.1171,-4.1214,-4.1254,-4.1313,-4.1363,-4.1391,-4.1428,-4.1477,-4.1547,-4.1528,-4.1555,-4.1556,-4.1597,-4.168,-4.157,-4.1571,-4.1588,-4.178,-4.1795,-4.181,-4.1671,-4.1673,-4.1676,-4.1777,0,-4.1175,-4.1278,-4.1283,-4.1377,-4.1425,-4.1412,-4.1463,-4.1495,-4.1508,-4.1552,-4.1567,-4.1616,-4.1587,-4.1604,-4.1644,-4.1661,-4.1718,-4.1654,-4.1715,-4.1717,-4.1704,-4.1828,-4.1843,-4.1937,-4.179,-4.1792,-4.1794,0,-4.13,-4.1341,-4.144,-4.1477,-4.1497,-4.1543,-4.159,-4.1632,-4.1668,-4.1675,-4.1708,-4.1702,-4.1763,-4.1721,-4.1805,-4.1761,-4.1787,-4.18,-4.1804,-4.1807,-4.1758,-4.1833,-4.1967,-4.198,-4.1815,-4.1813,-4.1811,0,-4.1373,-4.1454,-4.1523,-4.1544,-4.1589,-4.1621,-4.1642,-4.1676,-4.1706,-4.1747,-4.1766,-4.1814,-4.184,-4.1877,-4.1885,-4.1854,-4.1969,-4.1928,-4.1976,-4.1976,-4.1998,-4.1996,-4.2136,-4.2019,-4.2019,-4.2019,-4.2018,0,-4.1478,-4.1538,-4.1557,-4.1599,-4.1667,-4.1673,-4.174,-4.1759,-4.1789,-4.1835,-4.1828,-4.1871,-4.188,-4.1926,-4.1933,-4.2001,-4.2013,-4.202,-4.2021,-4.2019,-4.2018,-4.2034,-4.2027,-4.2022,-4.2022,-4.2021,-4.202,0,-4.1569,-4.1585,-4.1659,-4.1697,-4.1708,-4.1756,-4.1788,-4.1829,-4.1843,-4.1902,-4.1916,-4.1937,-4.1991,-4.2004,-4.2067,-4.2072,-4.2152,-4.2148,-4.2139,-4.2138,-4.2185,-4.218,-4.2338,-4.2359,-4.2231,-4.2232,-4.2233,0,-4.1634,-4.1681,-4.1724,-4.1754,-4.1776,-4.1826,-4.1857,-4.1866,-4.1898,-4.1945,-4.1981,-4.2033,-4.2075,-4.2162,-4.2183,-4.2232,-4.2227,-4.228,-4.2234,-4.2232,-4.2226,-4.2222,-4.2226,-4.2287,-4.2288,-4.229,-4.229,0,-4.1747,-4.1753,-4.1798,-4.1847,-4.1884,-4.1923,-4.196,-4.1985,-4.1999,-4.2037,-4.2092,-4.2125,-4.2191,-4.2243,-4.2293,-4.2314,-4.2304,-4.2305,-4.2319,-4.2316,-4.2309,-4.2312,-4.216,-4.2301,-4.23,-4.2299,-4.2298,-4.2298,-4.1826,-4.1866,-4.1904,-4.1955,-4.1984,-4.2019,-4.206,-4.208,-4.2126,-4.218,-4.2183,-4.2243,-4.228,-4.2346,-4.237,-4.2417,-4.2401,-4.2421,-4.2425,-4.243,-4.2433,-4.2304,-4.2427,-4.2426,-4.2426,-4.2426,-4.2426,0,-4.1936,-4.196,-4.2008,-4.206,-4.2101,-4.2091,-4.2132,-4.2166,-4.2219,-4.2255,-4.2297,-4.2361,-4.2412,-4.2439,-4.249,-4.2523,-4.252,-4.2536,-4.2532,-4.2537,-4.2445,-4.2427,-4.2537,-4.2537,-4.2537,-4.2537,-4.2537,-4.2537,-4.1998,-4.2067,-4.2078,-4.2161,-4.2185,-4.2243,-4.2268,-4.23,-4.2329,-4.2401,-4.2444,-4.2461,-4.2494,-4.2548,-4.2595,-4.2601,-4.262,-4.2637,-4.2641,-4.2555,-4.2543,-4.2532,-4.2516,-4.2642,-4.2642,-4.2729,-4.273,-4.273]},{"header":{"parameterUnit":"m.s-1","parameterCategory":1,"la1":30.2991,"la2":30.254,"lo1":-89.0895,"lo2":-89.0444,"dy":0.0017,"dx":0.0017,"nx":28,"ny":28,"refTime":"2024-03-03T03:00:00:Z","depth":0,"parameterNumber":3,"parameterNumberName":"V-component_of_WINDS"},"data":[0,0,0,0,0,0,0,0,0,0,0,0,0,0,0,0,0,0,0,0,0,0,0,0,0,0,0,0,0,0,0,0,0,0,0,0,0,0,0,0,0,0,0,0,0,0,0,0,0,0,0,0,0,0,0,0,0,0,1.6093,1.6094,0,1.6152,1.6152,1.6153,1.6178,1.6178,1.6178,1.6178,1.6235,1.6237,1.6238,0,0,0,0,0,0,0,0,0,0,0,0,0,1.6004,1.6005,1.6093,1.6094,1.6095,1.6151,1.6152,1.6153,1.6178,1.6178,1.6178,1.6178,1.6235,1.6236,1.6238,0,0,0,0,0,0,0,0,0,0,0,0,0,1.605,1.6006,1.6093,1.6114,1.6117,1.6151,1.6152,1.6153,1.6178,1.6178,1.6178,1.6178,1.6234,1.6236,1.6239,1.6256,0,0,1.6246,1.6247,0,0,0,0,0,0,0,0,1.6048,1.6054,1.611,1.6113,1.6115,1.6157,1.6142,1.6188,1.6178,1.6155,1.6178,1.6178,1.6209,1.6214,1.6225,1.6259,1.6261,1.6246,1.6248,1.6249,1.6249,0,0,0,0,0,0,0,1.6044,1.6051,1.6116,1.6111,1.6114,1.6121,1.6127,1.6151,1.6182,1.6157,1.6159,1.6165,1.6211,1.6222,1.6226,1.6262,1.6246,1.6248,1.625,1.6251,1.6317,1.6317,0,0,0,0,0,0,1.6038,1.6048,1.6114,1.6118,1.6081,1.6122,1.613,1.6144,1.6182,1.6187,1.6165,1.6166,1.6218,1.6223,1.6228,1.6254,1.6249,1.6251,1.6252,1.6317,1.6317,1.6317,0,0,0,0,0,0,1.6036,1.6043,1.6112,1.6084,1.6093,1.6124,1.614,1.6145,1.6157,1.6188,1.6194,1.6172,1.6218,1.6225,1.625,1.6256,1.6252,1.6254,1.6316,1.6317,1.6317,1.6303,0,0,0,0,0,0,1.6033,1.6043,1.6049,1.6084,1.6094,1.6132,1.614,1.6146,1.6161,1.6163,1.6196,1.6201,1.6219,1.6246,1.6252,1.6259,1.6256,1.6316,1.6317,1.6317,1.6303,1.6303,1.6302,0,0,0,0,0,1.603,1.6041,1.6049,1.6057,1.6103,1.6133,1.6139,1.616,1.6162,1.6169,1.619,1.62,1.6254,1.6249,1.6256,1.6263,1.6316,1.6316,1.6317,1.6303,1.6303,1.6302,0,0,0,0,0,0,1.6005,1.6046,1.6055,1.6079,1.6102,1.6137,1.6146,1.6158,1.6181,1.6182,1.6206,1.6213,1.6237,1.6252,1.6245,1.6284,1.6286,1.6288,1.6273,1.6273,1.6273,1.6268,1.6258,0,0,0,0,0,1.6002,1.6023,1.6058,1.6075,1.6087,1.6115,1.6128,1.6143,1.6168,1.6177,1.62,1.6223,1.6246,1.626,1.6282,1.6305,1.6314,1.6314,1.6314,1.6314,1.6316,1.6332,1.6333,1.632,1.632,1.632,0,0,1.5997,1.6022,1.6033,1.6071,1.6091,1.6112,1.6123,1.6144,1.616,1.618,1.6206,1.6224,1.6252,1.6276,1.6288,1.629,1.6321,1.6315,1.6314,1.6316,1.6333,1.6334,1.6335,1.632,1.632,1.632,0,0,1.5998,1.6018,1.6036,1.6057,1.6088,1.6107,1.6112,1.6145,1.6158,1.6185,1.6202,1.6221,1.6259,1.628,1.6295,1.6308,1.6319,1.6314,1.6313,1.6329,1.633,1.6331,1.6337,1.6339,1.6316,1.6316,1.6316,0,1.5986,1.602,1.6044,1.6065,1.6082,1.6104,1.6123,1.6141,1.6177,1.6189,1.6191,1.6242,1.6261,1.6293,1.6296,1.6307,1.6314,1.631,1.6328,1.6329,1.633,1.6337,1.6339,1.6315,1.6315,1.6315,1.6315,0,1.6006,1.6029,1.6039,1.6076,1.6094,1.6114,1.6142,1.6158,1.6172,1.6191,1.6219,1.6245,1.6274,1.6283,1.6295,1.6317,1.6317,1.6323,1.6326,1.6331,1.6337,1.634,1.6314,1.6314,1.6314,1.6315,0,0,1.599,1.6043,1.6046,1.6065,1.6102,1.6121,1.6143,1.6173,1.6187,1.6212,1.6232,1.6265,1.6272,1.629,1.6305,1.6319,1.633,1.6323,1.6324,1.6325,1.6358,1.6354,1.6356,1.6338,1.6338,1.6339,1.6356,0,1.5997,1.6038,1.6062,1.6094,1.6117,1.6139,1.6159,1.6184,1.6204,1.6226,1.6247,1.6271,1.6277,1.6289,1.6303,1.6326,1.6337,1.6325,1.6357,1.6358,1.635,1.6359,1.6354,1.6369,1.6359,1.6359,1.6359,0,1.601,1.6037,1.6072,1.611,1.6121,1.6138,1.6169,1.619,1.622,1.6234,1.6255,1.6271,1.6297,1.6298,1.6334,1.6325,1.634,1.6354,1.6355,1.6359,1.6359,1.6365,1.6374,1.6377,1.6363,1.6363,1.6363,0,1.5998,1.6043,1.607,1.6085,1.6129,1.6142,1.6161,1.6191,1.6209,1.6236,1.6249,1.6278,1.6294,1.6317,1.6341,1.634,1.6376,1.6378,1.6388,1.6388,1.6395,1.6394,1.6408,1.6403,1.6403,1.6403,1.6403,0,1.6003,1.6024,1.6066,1.6082,1.6107,1.6135,1.6158,1.6179,1.6207,1.6228,1.6249,1.6269,1.63,1.6324,1.6343,1.6372,1.6378,1.639,1.6395,1.6389,1.6388,1.6399,1.6399,1.6404,1.6403,1.6403,1.6403,0,1.5993,1.6021,1.6053,1.6094,1.6105,1.6122,1.6157,1.6175,1.6196,1.6224,1.6232,1.6266,1.6296,1.6323,1.6361,1.6375,1.6404,1.641,1.6394,1.6397,1.6406,1.6406,1.6429,1.6434,1.6424,1.6424,1.6424,0,1.5995,1.6012,1.6056,1.6073,1.6092,1.6118,1.6138,1.6167,1.6186,1.6224,1.6238,1.6269,1.6296,1.6343,1.6371,1.6402,1.6409,1.6415,1.6414,1.6408,1.6411,1.641,1.6413,1.6415,1.6415,1.6415,1.6415,0,1.5996,1.601,1.6038,1.6071,1.6094,1.6121,1.6149,1.6162,1.6196,1.6217,1.6249,1.627,1.6312,1.6344,1.6379,1.6398,1.6413,1.6416,1.642,1.6414,1.6405,1.6412,1.6395,1.6415,1.6415,1.6415,1.6415,1.6415,1.5993,1.601,1.6045,1.6076,1.61,1.6127,1.6147,1.6172,1.62,1.6237,1.6252,1.6285,1.6318,1.6366,1.6387,1.6413,1.6416,1.6421,1.6423,1.6424,1.6424,1.64,1.6419,1.6419,1.6419,1.6419,1.6419,0,1.5996,1.6021,1.6049,1.6089,1.6114,1.6127,1.616,1.6179,1.6209,1.6238,1.6266,1.6304,1.6336,1.6368,1.6402,1.6417,1.6425,1.6425,1.6424,1.6429,1.6419,1.6412,1.6418,1.6418,1.6418,1.6418,1.6418,1.6418,1.6001,1.6032,1.6051,1.6095,1.6119,1.6153,1.6171,1.6196,1.6221,1.6263,1.629,1.6311,1.6343,1.638,1.641,1.6419,1.6431,1.643,1.644,1.643,1.643,1.6429,1.6424,1.6432,1.6432,1.6449,1.6449,1.6449]}]]